TimeHST,TemperatureF,Dew PointF,Humidity,Sea Level PressureIn,VisibilityMPH,Wind Direction,Wind SpeedMPH,Gust SpeedMPH,PrecipitationIn,Events,Conditions,WindDirDegrees,DateUTC
12:56 AM,69.1,54.0,58,30.17,10.0,Calm,Calm,-,N/A,,Mostly Cloudy,0,2013-02-19 10:56:00
1:56 AM,66.9,55.0,66,30.14,10.0,Calm,Calm,-,N/A,,Clear,0,2013-02-19 11:56:00
2:56 AM,64.0,55.0,73,30.13,10.0,East,3.5,-,N/A,,Scattered Clouds,100,2013-02-19 12:56:00
3:56 AM,66.9,59.0,76,30.12,10.0,ENE,4.6,-,N/A,,Mostly Cloudy,70,2013-02-19 13:56:00
4:56 AM,69.1,61.0,75,30.13,10.0,NE,3.5,-,N/A,,Overcast,50,2013-02-19 14:56:00
5:56 AM,68.0,60.1,76,30.14,10.0,SE,4.6,-,N/A,,Overcast,130,2013-02-19 15:56:00
6:56 AM,66.9,59.0,76,30.15,10.0,East,4.6,-,N/A,,Clear,90,2013-02-19 16:56:00
7:56 AM,66.0,57.9,75,30.17,10.0,Calm,Calm,-,N/A,,Clear,0,2013-02-19 17:56:00
8:56 AM,73.9,61.0,64,30.17,10.0,Calm,Calm,-,N/A,,Clear,0,2013-02-19 18:56:00
9:56 AM,75.0,57.9,55,30.18,10.0,SW,5.8,-,N/A,,Partly Cloudy,220,2013-02-19 19:56:00
10:56 AM,75.9,59.0,56,30.18,10.0,West,9.2,-,N/A,,Mostly Cloudy,270,2013-02-19 20:56:00
11:56 AM,78.1,55.0,45,30.15,10.0,NW,8.1,-,N/A,,Scattered Clouds,310,2013-02-19 21:56:00
12:56 PM,82.9,55.0,38,30.11,10.0,SSW,12.7,-,N/A,,Overcast,210,2013-02-19 22:56:00
2:56 PM,81.0,55.9,42,30.08,10.0,North,10.4,28.8,N/A,,Mostly Cloudy,360,2013-02-20 00:56:00
3:56 PM,80.1,55.0,42,30.06,10.0,Variable,6.9,-,N/A,,Mostly Cloudy,0,2013-02-20 01:56:00
4:18 PM,78.8,55.4,44,30.06,10.0,North,9.2,-,N/A,,Overcast,10,2013-02-20 02:18:00
4:56 PM,79.0,55.9,45,30.06,10.0,North,15.0,-,N/A,,Scattered Clouds,10,2013-02-20 02:56:00
5:56 PM,77.0,55.0,47,30.08,10.0,Variable,4.6,-,N/A,,Mostly Cloudy,0,2013-02-20 03:56:00
6:56 PM,75.0,52.0,44,30.10,10.0,NE,4.6,-,N/A,,Mostly Cloudy,50,2013-02-20 04:56:00
7:56 PM,73.0,52.0,48,30.12,10.0,SSE,3.5,-,N/A,,Mostly Cloudy,160,2013-02-20 05:56:00
8:56 PM,72.0,52.0,49,30.14,10.0,NE,3.5,-,N/A,,Clear,40,2013-02-20 06:56:00
9:56 PM,72.0,51.1,48,30.14,10.0,North,3.5,-,N/A,,Clear,10,2013-02-20 07:56:00
10:56 PM,73.0,53.1,49,30.15,10.0,Calm,Calm,-,N/A,,Mostly Cloudy,0,2013-02-20 08:56:00
11:56 PM,70.0,52.0,53,30.14,10.0,Calm,Calm,-,N/A,,Scattered Clouds,0,2013-02-20 09:56:00